Miscellaneous Local Product
Issued by NWS North Platte, NE

Home | Current Version | Previous Version | Graphics & Text | Print | Product List | Glossary On
Versions: 1 2 3 4 5 6 7 8 9 10 11 12 13 14 15 16 17 18 19 20 21 22 23 24 25 26 27 28 29 30 31 32 33 34 35 36 37 38 39 40 41 42 43 44 45 46 47 48 49 50
000
AXUS43 KLBF 210210
MISLBF


WESTERN AND NORTH CENTRAL NEBRASKA HOURLY WEATHER ROUNDUP
NATIONAL WEATHER SERVICE NORTH PLATTE NE
800 PM CST SAT DEC 20 2014

***STATIONS NOT REPORTING VARIABLES SUCH AS SKY/WEATHER OR
PRESSURE ARE PROVIDED BY THE NEBRASKA DEPARTMENT OF
ROADS...RAWS...AND APRS NETWORKS...AND ARE NOT UNDER
NATIONAL WEATHER SERVICE QUALITY CONTROL***

...OBSERVATIONS IN AND NEAR THE EASTERN PANHANDLE OF NEBRASKA...

CITY           SKY/WX    TMP DP  RH WIND       PRES   REMARKS
PINE RIDGE     PTCLDY    26  21  81 NE3       29.89F
CHADRON        PTCLDY    29  25  85 W5        29.90S WCI  24
ALLIANCE       CLEAR     26  24  92 S3        29.90S
SIDNEY         MOCLDY    31  25  78 SW10      29.94F WCI  22
WHITECLAY        N/A     27  23  86 SE5         N/A  WCI  21
CRESCENT LAKE    N/A     33  27  79 CALM        N/A
LISCO            N/A     29  25  83 N3          N/A
BIG SPRINGS      N/A     28  25  88 W8          N/A  WCI  20
$$

...OBSERVATIONS IN NORTH CENTRAL NEBRASKA...

CITY           SKY/WX    TMP DP  RH WIND       PRES   REMARKS
VALENTINE      CLEAR     26  23  88 W5        29.90F WCI  20
THEDFORD       CLEAR     31  28  89 W5        29.91S WCI  26
AINSWORTH      CLEAR     26  24  92 W6        29.90S WCI  19
O`NEILL        FOG       31  31 100 S7        29.93S VSB 1   WCI  24
BROKEN BOW     CLEAR     30  27  88 CALM      29.93S
BROWNLEE         N/A     32  27  80 W5          N/A  WCI  27
SPRINGVIEW       N/A     27  25  91 CALM        N/A
BREWSTER         N/A     30  30 100 SW6         N/A  WCI  24
ROSE             N/A     32  32 100 CALM        N/A
SARGENT          N/A     28  27  96 CALM        N/A
COMSTOCK         N/A     34  33  96 S8          N/A  WCI  28
CHAMBERS         N/A     30  29  97 CALM        N/A
EWING            N/A     31  32 100 CALM        N/A
$$

...OBSERVATIONS IN SOUTHWEST NEBRASKA AND FAR NORTHEAST COLORADO...

CITY           SKY/WX    TMP DP  RH WIND       PRES   REMARKS
WRAY           CLOUDY    32  29  87 W3        29.96S
HOLYOKE        FAIR      36  32  87 W8        29.95S WCI  29
IMPERIAL       PTCLDY    34  26  72 SW5       29.95S WCI  30
OGALLALA       PTCLDY    24  22  93 W6        29.95R WCI  17
NORTH PLATTE   CLEAR     27  24  89 CALM      29.94S
MCCOOK         CLEAR     33  28  81 SW10      29.95F WCI  25
LEXINGTON      CLEAR     34  30  85 CALM      29.95S
PAXTON           N/A     30  27  88 CALM        N/A
BRADY            N/A     29  26  86 CALM        N/A
GOTHENBURG       N/A     36  28  73 CALM        N/A
CALLAWAY         N/A     33  29  86 S6          N/A  WCI  27
$$

...NORTH PLATTE AREA...

CITY           SKY/WX    TMP DP  RH WIND       PRES   REMARKS
AIRPORT        CLEAR     27  24  89 CALM      29.94S
DOWNTOWN         N/A     32  28  85 CALM        N/A
$$

...SOME WEATHER OBSERVATIONS FROM AROUND THE REGION...

CITY           SKY/WX    TMP DP  RH WIND       PRES   REMARKS
DENVER         CLOUDY    34  23  64 S9        29.93S WCI  27
LARAMIE        MOCLDY    27  21  78 S7        29.93S WCI  19
CHEYENNE       CLOUDY    35  20  54 W10       29.93F WCI  27
SCOTTSBLUFF    MOCLDY    30  22  72 NW3       29.92S
RAPID CITY     PTCLDY    29  24  82 CALM      29.87S
PIERRE         PTCLDY    19  17  92 CALM      29.88F FOG
WINNER         FAIR      33  26  75 SW6       29.90S WCI  28
SIOUX FALLS    CLOUDY    30  29  96 S15       29.99F FOG     WCI  19
OMAHA          CLOUDY    35  32  88 SE8       30.07F FOG     WCI  29
GRAND ISLAND   PTCLDY    31  30  96 S5        29.99F FOG     WCI  26
KANSAS CITY    CLOUDY    38  35  89 S13       30.12S FOG     WCI  30
WICHITA        CLOUDY    44  37  76 S10       30.11S
HAYS           PTCLDY    37  30  75 SW8       30.01F WCI  31
LIBERAL        MOCLDY    39  32  75 SE7       30.03S WCI  34
GOODLAND       MOCLDY    31  26  82 S6        29.96S WCI  25
$$



USA.gov is the U.S. government's official web portal to all federal, state and local government web resources and services.